軌道要素
Epoch 2013 Mar. 9.0 TT = JDT 2456360.5
T 2013 Feb. 26.10678 TT MPC
q 3.3901459 (2000.0) P Q
n 0.03912520 Peri. 138.10787 +0.49495724 +0.86249432
a 8.5933994 Node 160.79739 -0.85779902 +0.50436482
e 0.6054942 Incl. 18.70053 -0.13855748 -0.04146896
P 25.2
From 72 observations 2013 July 28-Nov. 5, mean residual 0".5.
|